Wind_Speed
10 13 14 16 17 19 20 20 21 20 21 21 22 22 21 20 20 20 20 19 19 19 18 18 19 18 18 18 18 17 16 17 17 17 18 18 18 19 20 20 20 21 22
8 10 12 14 16 17 19 19 20 21 21 21 21 21 21 20 20 20 20 20 19 19 19 19 20 20 19 20 20 19 19 19 20 20 21 21 22 22 23 23 24 24 25
7 10 12 13 14 16 18 19 21 21 21 21 22 21 21 20 20 20 20 20 20 20 20 20 20 21 21 22 22 22 22 22 22 22 23 24 25 25 26 26 26 27 27
7 8 11 13 15 17 18 18 20 21 21 21 22 22 21 21 20 20 20 20 20 21 21 22 22 23 23 24 24 24 25 25 25 26 26 27 27 27 28 28 29 30 30
6 7 9 12 14 15 17 18 18 20 20 21 22 22 21 20 19 20 21 21 21 22 23 24 25 25 26 26 26 27 27 28 28 28 29 30 30 31 31 31 32 32 33
6 7 8 10 12 14 15 17 18 18 18 20 20 21 20 20 20 20 20 21 23 24 25 25 26 26 27 28 28 29 30 30 30 31 31 32 33 34 34 34 35 34 35
7 8 9 10 12 13 15 16 16 17 18 18 19 20 20 21 22 22 22 23 24 24 25 25 26 27 28 28 30 31 32 32 33 33 34 35 35 37 37 38 38 39 38
8 9 10 10 11 12 13 14 16 17 17 18 19 20 21 22 23 23 24 24 25 25 25 26 27 28 28 29 31 32 33 34 35 36 36 37 38 39 40 41 41 42 42
10 10 11 11 12 13 15 16 16 17 18 19 20 21 22 23 24 24 25 26 26 26 27 28 28 29 30 32 32 33 34 35 36 37 37 38 40 41 42 44 44 45 45
13 12 12 12 12 14 15 17 17 17 18 20 22 23 24 25 26 26 27 28 28 29 30 31 31 32 32 33 34 35 36 37 38 38 39 40 42 43 45 46 47 48 48
14 14 14 14 15 16 17 18 18 19 20 22 24 25 25 27 28 28 29 29 30 31 32 32 33 33 34 34 35 36 37 38 40 41 42 43 45 46 48 49 50 50 51
16 16 16 16 17 18 18 19 19 20 21 22 23 23 24 26 27 28 29 30 31 32 33 34 35 35 36 37 38 38 39 40 42 43 45 46 47 48 49 50 50 51 52
18 18 18 18 18 19 19 19 20 20 20 21 22 23 24 25 26 27 28 31 33 34 34 35 35 36 38 39 40 41 41 43 44 46 46 47 48 48 49 49 50 51 52
20 20 20 20 21 20 20 20 21 21 21 21 22 23 25 26 26 28 30 31 32 33 35 35 36 38 39 40 41 42 43 44 45 46 47 47 47 48 49 50 50 50 51
21 21 21 21 22 21 21 21 21 22 23 23 23 24 25 26 28 29 30 30 32 33 34 35 37 38 39 40 41 42 43 44 45 46 46 46 46 48 49 50 51 52 53
21 22 23 23 23 23 23 23 24 24 24 24 24 25 26 27 28 30 31 32 34 35 35 37 38 39 41 42 43 43 43 44 44 45 46 46 47 48 49 51 52 53 54
20 21 22 23 23 24 24 25 25 26 26 26 27 28 28 29 30 31 32 34 36 36 37 38 39 40 41 42 43 43 44 45 45 46 47 47 48 49 51 52 53 54 54
19 20 21 21 22 22 22 22 23 24 26 27 27 28 29 30 31 32 33 34 35 37 38 39 40 41 42 43 44 45 46 46 46 47 47 48 49 50 51 52 52 53 53
17 18 18 19 19 20 20 21 22 23 24 24 25 27 27 29 31 33 34 35 36 38 40 41 42 42 43 44 45 46 46 46 47 47 48 48 49 49 50 50 50 50 49
15 16 17 17 18 18 19 20 21 23 25 26 27 29 30 32 33 35 36 38 39 40 41 42 44 44 45 45 46 46 46 46 47 47 47 47 47 47 47 46 46 45 45
14 15 15 16 17 18 20 21 23 25 27 28 30 31 32 34 35 37 38 40 41 42 43 43 44 44 44 44 44 44 45 45 45 45 45 44 44 44 43 42 42 41 39
13 13 15 16 18 20 22 24 26 27 29 31 33 34 35 37 38 38 40 41 42 42 42 42 42 42 42 42 42 42 43 42 42 42 42 42 41 41 40 39 39 37 35
14 16 17 19 20 22 24 26 28 30 32 34 35 36 37 38 39 40 41 41 41 41 40 40 40 40 40 40 40 40 41 40 40 40 40 39 38 38 38 36 35 33 31
17 19 20 22 23 25 27 28 30 32 33 35 36 37 38 40 40 40 40 39 39 39 39 39 39 39 39 39 39 39 39 39 39 38 37 36 35 35 34 33 32 31 31
20 22 23 25 26 28 29 31 32 34 35 36 37 38 38 39 39 38 38 37 37 38 38 37 37 36 36 37 37 37 37 37 36 35 35 34 33 32 31 30 29 29 29
23 25 26 28 29 31 32 33 34 35 36 37 37 38 37 37 37 36 35 35 35 35 36 35 35 35 35 35 35 35 35 34 33 32 32 31 30 29 29 29 28 28 28
Wind_Direction
225 221 221 219 217 214 213 212 214 215 215 215 216 219 223 226 227 229 231 232 233 234 235 237 239 241 245 247 249 250 253 258 262 266 269 271 274 275 276 277 277 278 279
227 219 217 214 211 209 209 210 210 211 212 215 217 220 222 225 229 231 232 233 234 238 240 242 244 246 249 252 253 255 258 262 266 270 272 273 275 276 277 278 279 280 280
228 219 214 211 211 209 210 210 210 209 212 215 217 221 224 227 230 232 231 234 237 240 243 245 247 250 253 256 257 261 263 266 269 272 274 276 277 277 278 279 279 280 281
229 225 219 219 216 213 214 213 214 213 216 219 221 225 228 231 233 234 235 236 240 244 248 250 252 255 258 261 262 265 267 269 270 272 275 277 278 278 278 279 280 281 281
233 229 223 218 213 212 214 215 215 215 220 224 225 229 232 233 234 237 240 242 245 248 251 253 255 259 262 263 265 267 270 271 272 273 275 278 279 280 280 281 281 281 281
239 234 231 226 221 217 216 215 217 218 224 226 225 230 234 236 237 240 244 246 248 250 252 255 257 260 262 264 267 269 271 272 274 275 276 278 279 280 281 281 281 280 280
248 243 241 234 231 223 221 223 222 222 226 227 228 232 236 239 242 245 248 251 253 254 255 257 259 261 263 266 268 271 272 274 275 276 277 278 278 279 280 280 280 280 279
253 247 248 240 238 234 230 227 227 228 232 232 235 238 240 243 245 249 251 254 256 258 260 260 260 262 265 267 270 273 275 277 278 278 279 279 279 280 281 282 281 281 280
259 255 253 250 246 242 241 238 236 235 239 241 243 243 245 248 249 251 255 257 258 259 261 262 264 265 267 269 272 274 277 278 279 280 280 279 280 280 281 282 283 282 281
260 258 255 257 254 247 249 247 245 245 247 248 249 248 248 250 252 255 257 258 260 261 262 264 266 269 272 273 274 276 277 278 279 280 280 280 280 281 282 283 282 282 282
259 257 257 256 256 255 255 253 252 253 254 253 253 253 252 252 256 258 260 262 263 264 266 269 270 272 274 275 277 278 279 279 279 279 280 280 281 282 283 284 284 284 284
258 259 261 260 260 259 258 256 255 257 259 258 258 261 261 262 264 264 265 266 266 268 270 271 273 274 275 276 277 279 280 280 280 281 281 282 282 283 283 284 284 284 284
260 261 262 261 263 262 262 260 260 261 264 265 263 265 267 270 272 272 272 272 272 272 271 271 273 275 276 277 278 280 281 281 282 282 283 282 282 282 282 283 284 284 284
259 262 263 264 265 266 266 266 263 264 266 268 267 268 269 272 274 276 276 276 276 275 275 275 276 278 279 279 280 280 281 282 283 283 283 284 284 283 283 284 284 284 283
260 261 264 265 267 269 268 268 268 269 269 271 272 272 274 275 277 278 279 280 281 280 279 280 281 280 280 281 281 282 283 285 285 286 286 286 285 284 284 284 284 284 284
261 262 263 264 265 265 267 268 269 272 274 274 276 277 277 278 279 280 280 280 282 282 282 283 283 282 283 283 285 286 287 287 287 287 287 287 286 286 286 286 286 286 285
263 263 264 264 265 266 266 267 269 272 275 275 277 279 279 280 280 280 282 282 283 283 283 283 283 284 285 286 287 287 287 288 287 287 287 287 287 287 288 288 288 288 287
263 264 266 267 268 269 269 270 272 274 277 276 279 282 283 283 283 283 284 285 286 286 285 285 286 287 288 288 288 288 288 288 288 288 287 287 287 288 288 288 289 289 289
269 271 273 272 272 272 271 273 275 278 279 279 282 284 286 286 286 287 287 287 288 287 287 288 288 289 288 288 288 289 289 288 288 288 288 289 289 289 290 290 290 291 291
273 275 275 273 274 274 273 275 278 281 283 286 287 288 289 288 287 289 289 290 289 288 289 289 289 289 289 289 289 289 289 290 291 291 291 291 291 292 291 291 292 293 293
269 272 276 280 281 282 284 286 287 287 289 290 291 292 292 292 291 292 292 292 291 291 291 291 291 292 292 291 292 292 293 293 293 293 293 292 293 293 293 293 293 294 293
271 276 281 284 286 287 288 289 290 290 291 293 294 294 294 294 294 294 295 295 295 295 295 295 295 295 295 294 294 294 295 295 295 295 294 294 294 293 293 294 295 295 294
282 285 287 289 290 291 292 292 293 293 294 295 297 297 297 296 296 296 296 296 297 297 296 296 296 297 296 296 296 296 297 296 296 295 294 294 293 292 292 293 293 293 293
285 288 290 292 293 294 295 297 298 299 299 299 299 299 300 300 298 297 296 297 297 296 297 296 297 297 297 297 298 298 298 298 298 296 294 293 293 293 293 292 291 291 293
289 291 292 294 295 296 297 298 299 300 301 301 300 300 300 300 298 296 296 297 297 297 298 298 299 299 300 300 300 300 300 299 299 298 296 295 295 295 294 294 293 293 294
291 293 295 296 297 298 298 299 300 300 301 301 301 301 300 299 298 297 297 297 297 298 299 300 300 301 302 302 302 302 302 302 302 300 298 297 296 297 296 296 295 294 294
Height
5822 5824 5824 5826 5829 5831 5833 5836 5840 5842 5845 5848 5851 5854 5856 5857 5859 5861 5862 5864 5866 5867 5869 5870 5871 5872 5873 5874 5875 5875 5876 5876 5876 5876 5875 5875 5874 5873 5872 5871 5870 5869 5868
5821 5822 5823 5824 5826 5828 5831 5834 5837 5839 5842 5845 5847 5850 5852 5853 5855 5857 5858 5860 5862 5863 5865 5866 5867 5868 5869 5870 5870 5871 5871 5871 5871 5870 5870 5869 5868 5867 5866 5865 5864 5863 5861
5819 5820 5821 5823 5825 5827 5829 5831 5834 5836 5839 5841 5844 5846 5848 5849 5851 5853 5854 5856 5857 5859 5860 5861 5862 5863 5864 5865 5865 5865 5865 5865 5865 5864 5864 5863 5862 5860 5859 5858 5857 5855 5854
5818 5819 5820 5821 5823 5825 5827 5829 5831 5833 5836 5838 5840 5842 5844 5845 5847 5848 5850 5851 5853 5854 5856 5857 5857 5858 5859 5859 5859 5859 5859 5859 5858 5857 5857 5855 5854 5853 5852 5850 5849 5847 5846
5817 5818 5818 5819 5820 5822 5824 5827 5829 5831 5833 5834 5836 5838 5840 5841 5843 5844 5846 5847 5848 5850 5850 5851 5852 5852 5852 5852 5852 5852 5852 5851 5850 5850 5849 5847 5846 5844 5843 5842 5840 5839 5837
5816 5816 5817 5818 5819 5820 5822 5824 5825 5827 5829 5830 5832 5834 5835 5837 5838 5840 5841 5842 5843 5843 5844 5845 5845 5845 5845 5845 5845 5845 5844 5843 5842 5841 5840 5839 5837 5835 5833 5832 5830 5829 5828
5814 5815 5815 5816 5817 5817 5819 5820 5822 5823 5825 5826 5828 5830 5831 5832 5834 5835 5836 5837 5838 5838 5838 5838 5838 5838 5838 5838 5837 5837 5836 5835 5834 5832 5831 5829 5827 5825 5823 5821 5819 5818 5817
5812 5813 5814 5814 5815 5815 5816 5817 5818 5820 5821 5823 5824 5825 5826 5827 5828 5829 5830 5831 5831 5832 5831 5831 5831 5831 5830 5830 5829 5828 5827 5826 5824 5822 5821 5819 5816 5814 5812 5810 5808 5806 5804
5810 5810 5811 5811 5812 5813 5813 5814 5815 5816 5817 5818 5819 5820 5821 5822 5823 5823 5824 5824 5825 5825 5824 5824 5823 5823 5822 5821 5821 5820 5818 5816 5814 5812 5810 5808 5805 5803 5800 5798 5795 5793 5791
5806 5807 5807 5808 5809 5809 5810 5810 5811 5812 5812 5813 5814 5814 5815 5816 5816 5817 5817 5817 5817 5817 5816 5816 5815 5814 5813 5811 5810 5809 5808 5805 5803 5801 5799 5797 5794 5791 5788 5785 5782 5779 5777
5802 5803 5803 5804 5804 5805 5805 5806 5806 5807 5807 5807 5807 5808 5809 5809 5809 5809 5809 5809 5809 5808 5808 5807 5806 5805 5803 5802 5800 5799 5797 5795 5792 5790 5787 5785 5782 5778 5775 5771 5768 5765 5762
5798 5798 5799 5799 5799 5800 5800 5800 5801 5801 5801 5801 5801 5802 5802 5802 5802 5802 5801 5800 5800 5799 5798 5797 5796 5795 5793 5792 5790 5788 5785 5783 5781 5778 5775 5772 5769 5765 5761 5757 5753 5750 5746
5792 5793 5793 5794 5794 5794 5795 5795 5795 5795 5795 5795 5795 5795 5795 5795 5794 5794 5793 5792 5791 5789 5788 5787 5786 5784 5782 5780 5778 5776 5773 5771 5768 5765 5761 5758 5755 5751 5747 5743 5739 5735 5732
5786 5787 5788 5788 5788 5788 5789 5789 5789 5789 5789 5788 5788 5788 5788 5787 5787 5786 5784 5783 5781 5780 5778 5776 5775 5773 5771 5769 5766 5763 5761 5758 5754 5751 5747 5744 5740 5736 5732 5729 5725 5721 5717
5781 5782 5782 5782 5782 5782 5782 5782 5782 5782 5782 5782 5781 5780 5780 5779 5778 5777 5775 5773 5771 5770 5768 5766 5764 5762 5759 5757 5754 5750 5747 5744 5741 5737 5733 5729 5725 5722 5717 5713 5709 5705 5701
5775 5775 5776 5776 5776 5776 5776 5776 5775 5775 5775 5774 5774 5773 5772 5771 5769 5768 5766 5764 5762 5760 5758 5756 5753 5750 5747 5744 5741 5738 5734 5731 5727 5723 5719 5715 5711 5707 5702 5698 5693 5688 5684
5768 5768 5769 5769 5769 5769 5769 5769 5769 5768 5767 5767 5766 5765 5763 5762 5760 5758 5756 5754 5751 5749 5747 5744 5741 5738 5735 5732 5728 5725 5721 5717 5713 5709 5705 5701 5696 5692 5687 5682 5677 5672 5667
5762 5762 5762 5762 5762 5762 5762 5762 5761 5760 5759 5758 5757 5756 5754 5752 5749 5747 5746 5743 5740 5738 5735 5732 5729 5726 5722 5719 5715 5711 5707 5703 5699 5694 5690 5686 5681 5676 5671 5666 5661 5656 5651
5756 5756 5756 5756 5755 5755 5755 5755 5754 5753 5752 5751 5749 5747 5745 5743 5740 5738 5735 5733 5730 5726 5723 5720 5716 5712 5709 5705 5701 5697 5693 5689 5684 5680 5675 5670 5666 5660 5655 5650 5645 5640 5635
5750 5750 5750 5750 5749 5749 5748 5748 5747 5746 5744 5742 5740 5738 5736 5733 5731 5728 5724 5721 5718 5714 5710 5706 5703 5699 5695 5691 5686 5682 5678 5674 5669 5664 5660 5655 5650 5645 5641 5636 5631 5626 5621
5746 5745 5745 5744 5743 5743 5741 5740 5739 5737 5735 5733 5731 5729 5726 5723 5720 5716 5712 5709 5705 5701 5697 5693 5688 5684 5680 5676 5672 5668 5664 5659 5655 5650 5645 5641 5636 5632 5627 5622 5618 5614 5609
5741 5741 5740 5739 5738 5736 5735 5733 5731 5729 5726 5723 5720 5718 5715 5712 5708 5704 5700 5696 5692 5688 5684 5679 5675 5671 5667 5663 5659 5654 5650 5645 5641 5636 5632 5627 5623 5619 5614 5611 5606 5602 5598
5736 5736 5734 5733 5731 5730 5728 5725 5723 5720 5717 5713 5710 5706 5703 5699 5695 5691 5687 5683 5679 5675 5671 5667 5662 5658 5654 5650 5646 5641 5637 5633 5628 5624 5620 5615 5611 5606 5603 5599 5596 5592 5589
5731 5730 5728 5726 5724 5722 5719 5716 5713 5710 5706 5703 5699 5695 5691 5687 5683 5679 5675 5671 5667 5663 5659 5655 5651 5647 5642 5638 5634 5629 5624 5620 5616 5611 5607 5603 5599 5595 5592 5588 5585 5582 5579
5724 5723 5721 5719 5716 5713 5710 5707 5704 5700 5696 5692 5688 5684 5680 5675 5671 5667 5663 5660 5656 5651 5647 5643 5639 5635 5630 5626 5622 5617 5613 5608 5604 5600 5596 5592 5589 5585 5582 5579 5576 5573 5570
5717 5715 5713 5710 5707 5704 5701 5698 5694 5690 5686 5682 5678 5674 5669 5665 5660 5656 5653 5649 5645 5641 5637 5632 5628 5624 5619 5615 5611 5607 5602 5598 5594 5590 5586 5582 5579 5576 5573 5570 5567 5564 5561